| time (UTC) | temp C | wind direction | speed KPH | gust KPH | rain 1hr cm | rain 24hr cm | rain mn cm | humidity % | barometer mb |
| 20260502162143 | 12 | 180 | 1.6 | 6.4 | 0.00 | 0.00 | 0.00 | 34 | 1021.7 |
| 20260502161122 | 12 | 152 | 1.6 | 8.0 | 0.00 | 0.00 | 0.00 | 43 | 1021.8 |
| 20260502160143 | 11 | 142 | 1.6 | 4.8 | 0.00 | 0.00 | 0.00 | 38 | 1021.9 |
| 20260502152143 | 7 | 120 | 1.6 | 6.4 | 0.00 | 0.00 | 0.00 | 47 | 1022.2 |
| 20260502151122 | 6 | 249 | 0.0 | 1.6 | 0.00 | 0.00 | 0.00 | 59 | 1022.2 |
| 20260502150122 | 5 | 250 | 0.0 | 3.2 | 0.00 | 0.00 | 0.00 | 62 | 1022.2 |
| 20260502140122 | 2 | 329 | 1.6 | 3.2 | 0.00 | 0.00 | 0.00 | 74 | 1022.4 |
| 20260502123122 | 1 | 0 | 0.0 | 0.0 | 0.00 | 0.00 | 0.00 | 69 | 1021.9 |
| 20260502122122 | 1 | 333 | 0.0 | 3.2 | 0.00 | 0.00 | 0.00 | 69 | 1021.7 |
| 20260502121122 | 1 | 332 | 0.0 | 3.2 | 0.00 | 0.00 | 0.00 | 68 | 1021.7 |
| 20260502120143 | 1 | 331 | 1.6 | 3.2 | 0.00 | 0.00 | 0.00 | 68 | 1021.6 |
| 20260502115122 | 1 | 0 | 0.0 | 0.0 | 0.00 | 0.00 | 0.00 | 67 | 1021.5 |
| 20260502114122 | 1 | 0 | 0.0 | 0.0 | 0.00 | 0.00 | 0.00 | 67 | 1021.6 |
| 20260502113122 | 1 | 331 | 0.0 | 1.6 | 0.00 | 0.00 | 0.00 | 66 | 1021.7 |
| 20260502112122 | 1 | 0 | 0.0 | 0.0 | 0.00 | 0.00 | 0.00 | 66 | 1021.6 |
| 20260502111143 | 1 | 0 | 0.0 | 0.0 | 0.00 | 0.00 | 0.00 | 65 | 1021.6 |
| 20260502110122 | 2 | 0 | 0.0 | 0.0 | 0.00 | 0.00 | 0.00 | 65 | 1021.6 |
| 20260502105122 | 2 | 332 | 0.0 | 1.6 | 0.00 | 0.00 | 0.00 | 64 | 1021.6 |
| 20260502104122 | 2 | 0 | 0.0 | 0.0 | 0.00 | 0.00 | 0.00 | 64 | 1021.4 |
| 20260502103122 | 2 | 342 | 0.0 | 3.2 | 0.00 | 0.00 | 0.00 | 63 | 1021.5 |
| 20260502102122 | 3 | 0 | 0.0 | 0.0 | 0.00 | 0.00 | 0.00 | 63 | 1021.5 |
| 20260502101122 | 3 | 351 | 0.0 | 1.6 | 0.00 | 0.00 | 0.00 | 63 | 1021.4 |
| 20260502100122 | 2 | 349 | 1.6 | 4.8 | 0.00 | 0.00 | 0.00 | 63 | 1021.3 |
| 20260502091143 | 3 | 0 | 0.0 | 0.0 | 0.00 | 0.00 | 0.00 | 61 | 1021.1 |
| 20260502090122 | 3 | 0 | 0.0 | 0.0 | 0.00 | 0.00 | 0.00 | 61 | 1021.1 |
| 20260502071143 | 6 | 0 | 0.0 | 0.0 | 0.00 | 0.00 | 0.00 | 56 | 1021.0 |
| 20260502070122 | 6 | 0 | 0.0 | 0.0 | 0.00 | 0.00 | 0.00 | 56 | 1020.9 |
| 20260502065122 | 6 | 0 | 0.0 | 0.0 | 0.00 | 0.00 | 0.00 | 54 | 1020.9 |
| 20260502064143 | 6 | 292 | 0.0 | 1.6 | 0.00 | 0.00 | 0.00 | 53 | 1020.9 |
| 20260502063122 | 6 | 292 | 0.0 | 1.6 | 0.00 | 0.00 | 0.00 | 53 | 1020.6 |
| 20260502062122 | 6 | 291 | 0.0 | 3.2 | 0.00 | 0.00 | 0.00 | 52 | 1020.6 |
| 20260502061122 | 6 | 288 | 0.0 | 1.6 | 0.00 | 0.00 | 0.00 | 52 | 1020.4 |
| 20260502055122 | 7 | 306 | 1.6 | 6.4 | 0.00 | 0.00 | 0.00 | 53 | 1020.3 |
| 20260502054122 | 7 | 338 | 1.6 | 4.8 | 0.00 | 0.00 | 0.00 | 48 | 1020.2 |
| 20260502053122 | 8 | 0 | 0.0 | 0.0 | 0.00 | 0.00 | 0.00 | 50 | 1020.3 |
| 20260502052122 | 8 | 0 | 0.0 | 0.0 | 0.00 | 0.00 | 0.00 | 50 | 1020.3 |
| 20260502051122 | 8 | 317 | 0.0 | 1.6 | 0.00 | 0.00 | 0.00 | 48 | 1020.1 |
| 20260502050143 | 8 | 0 | 0.0 | 0.0 | 0.00 | 0.00 | 0.00 | 46 | 1020.0 |
| 20260502045143 | 9 | 0 | 0.0 | 0.0 | 0.00 | 0.00 | 0.00 | 46 | 1020.0 |
| 20260502044122 | 9 | 0 | 0.0 | 0.0 | 0.00 | 0.00 | 0.00 | 44 | 1020.1 |
| 20260502043122 | 9 | 304 | 1.6 | 3.2 | 0.00 | 0.00 | 0.00 | 44 | 1020.0 |
| 20260502042122 | 10 | 285 | 1.6 | 3.2 | 0.00 | 0.00 | 0.00 | 44 | 1019.9 |
| 20260502041122 | 10 | 281 | 3.2 | 6.4 | 0.00 | 0.00 | 0.00 | 42 | 1019.7 |
| 20260502040122 | 10 | 279 | 0.0 | 3.2 | 0.00 | 0.00 | 0.00 | 41 | 1019.6 |
| 20260502035122 | 11 | 279 | 1.6 | 4.8 | 0.00 | 0.00 | 0.00 | 41 | 1019.4 |
| 20260502034143 | 11 | 332 | 1.6 | 12.9 | 0.00 | 0.00 | 0.00 | 38 | 1019.3 |
| 20260502033122 | 11 | 329 | 1.6 | 6.4 | 0.00 | 0.00 | 0.00 | 38 | 1019.2 |
| 20260502032122 | 12 | 296 | 1.6 | 9.7 | 0.00 | 0.00 | 0.00 | 38 | 1019.0 |
| 20260502031122 | 12 | 327 | 8.0 | 17.7 | 0.00 | 0.00 | 0.00 | 36 | 1018.9 |
| 20260502030122 | 12 | 344 | 6.4 | 16.1 | 0.00 | 0.00 | 0.00 | 33 | 1018.7 |
| 20260502025122 | 13 | 337 | 3.2 | 8.0 | 0.00 | 0.00 | 0.00 | 33 | 1018.6 |
| 20260502024122 | 13 | 349 | 4.8 | 8.0 | 0.00 | 0.00 | 0.00 | 31 | 1018.5 |
| 20260502023122 | 13 | 277 | 3.2 | 6.4 | 0.00 | 0.00 | 0.00 | 32 | 1018.3 |
| 20260502022143 | 14 | 278 | 6.4 | 14.5 | 0.00 | 0.00 | 0.00 | 30 | 1018.1 |
| 20260502021122 | 14 | 270 | 8.0 | 12.9 | 0.00 | 0.00 | 0.00 | 31 | 1018.0 |
| 20260502020122 | 15 | 305 | 1.6 | 9.7 | 0.00 | 0.00 | 0.00 | 30 | 1018.0 |
| 20260502015143 | 16 | 273 | 4.8 | 12.9 | 0.00 | 0.00 | 0.00 | 28 | 1018.0 |
| 20260502014122 | 16 | 279 | 3.2 | 17.7 | 0.00 | 0.00 | 0.00 | 27 | 1017.8 |
| 20260502013144 | 16 | 302 | 1.6 | 6.4 | 0.00 | 0.00 | 0.00 | 28 | 1017.8 |
| 20260502012122 | 16 | 306 | 4.8 | 14.5 | 0.00 | 0.00 | 0.00 | 27 | 1017.7 |
| 20260502011143 | 17 | 310 | 8.0 | 19.3 | 0.00 | 0.00 | 0.00 | 26 | 1017.6 |
| 20260502010143 | 17 | 313 | 6.4 | 17.7 | 0.00 | 0.00 | 0.00 | 26 | 1017.6 |
| 20260502005143 | 17 | 331 | 8.0 | 20.9 | 0.00 | 0.00 | 0.00 | 29 | 1017.6 |
| 20260502004122 | 17 | 327 | 9.7 | 22.5 | 0.00 | 0.00 | 0.00 | 26 | 1017.5 |
| 20260502003122 | 17 | 334 | 9.7 | 17.7 | 0.00 | 0.00 | 0.00 | 25 | 1017.6 |
| 20260502002122 | 17 | 332 | 9.7 | 19.3 | 0.00 | 0.00 | 0.00 | 25 | 1017.6 |
| 20260502001123 | 17 | 339 | 11.3 | 19.3 | 0.00 | 0.00 | 0.00 | 28 | 1017.7 |
| 20260502000123 | 17 | 337 | 6.4 | 17.7 | 0.00 | 0.00 | 0.00 | 25 | 1017.7 |
| 20260501235123 | 17 | 297 | 8.0 | 19.3 | 0.00 | 0.00 | 0.00 | 27 | 1017.7 |
| 20260501234123 | 17 | 292 | 6.4 | 16.1 | 0.00 | 0.00 | 0.00 | 28 | 1017.8 |
| 20260501233144 | 17 | 318 | 4.8 | 14.5 | 0.00 | 0.00 | 0.00 | 24 | 1017.8 |
| 20260501232123 | 17 | 321 | 4.8 | 17.7 | 0.00 | 0.00 | 0.00 | 25 | 1017.8 |
| 20260501231123 | 17 | 340 | 9.7 | 17.7 | 0.00 | 0.00 | 0.00 | 24 | 1017.9 |
| 20260501230123 | 17 | 280 | 6.4 | 14.5 | 0.00 | 0.00 | 0.00 | 23 | 1017.9 |
| 20260501225123 | 18 | 207 | 6.4 | 12.9 | 0.00 | 0.00 | 0.00 | 27 | 1018.0 |
| 20260501224123 | 18 | 213 | 4.8 | 12.9 | 0.00 | 0.00 | 0.00 | 24 | 1018.0 |
| 20260501223123 | 18 | 224 | 6.4 | 12.9 | 0.00 | 0.00 | 0.00 | 25 | 1018.0 |
| 20260501222123 | 18 | 232 | 4.8 | 12.9 | 0.00 | 0.00 | 0.00 | 23 | 1018.2 |
| 20260501221123 | 19 | 216 | 4.8 | 11.3 | 0.00 | 0.00 | 0.00 | 20 | 1018.3 |
| 20260501220123 | 19 | 236 | 4.8 | 11.3 | 0.00 | 0.00 | 0.00 | 22 | 1018.4 |
| 20260501215123 | 19 | 224 | 1.6 | 6.4 | 0.00 | 0.00 | 0.00 | 21 | 1018.5 |
| 20260501214123 | 18 | 313 | 3.2 | 9.7 | 0.00 | 0.00 | 0.00 | 22 | 1018.5 |
| 20260501213123 | 19 | 263 | 1.6 | 4.8 | 0.00 | 0.00 | 0.00 | 18 | 1018.7 |
| 20260501212123 | 19 | 200 | 4.8 | 9.7 | 0.00 | 0.00 | 0.00 | 25 | 1018.7 |
| 20260501211123 | 19 | 219 | 1.6 | 8.0 | 0.00 | 0.00 | 0.00 | 19 | 1018.8 |
| 20260501210123 | 18 | 208 | 3.2 | 8.0 | 0.00 | 0.00 | 0.00 | 23 | 1019.0 |
| 20260501205144 | 17 | 296 | 4.8 | 14.5 | 0.00 | 0.00 | 0.00 | 19 | 1019.0 |
| 20260501204123 | 18 | 253 | 3.2 | 9.7 | 0.00 | 0.00 | 0.00 | 19 | 1019.1 |
| 20260501203122 | 18 | 294 | 3.2 | 9.7 | 0.00 | 0.00 | 0.00 | 15 | 1019.0 |
| 20260501202122 | 18 | 321 | 3.2 | 9.7 | 0.00 | 0.00 | 0.00 | 17 | 1019.2 |
| 20260501201122 | 18 | 193 | 3.2 | 8.0 | 0.00 | 0.00 | 0.00 | 17 | 1019.2 |
| 20260501200122 | 18 | 171 | 3.2 | 9.7 | 0.00 | 0.00 | 0.00 | 17 | 1019.3 |
| 20260501195143 | 18 | 184 | 6.4 | 12.9 | 0.00 | 0.00 | 0.00 | 22 | 1019.4 |
| 20260501194122 | 18 | 152 | 4.8 | 9.7 | 0.00 | 0.00 | 0.00 | 22 | 1019.5 |
| 20260501193122 | 17 | 250 | 3.2 | 9.7 | 0.00 | 0.00 | 0.00 | 22 | 1019.5 |
| 20260501192122 | 18 | 226 | 3.2 | 9.7 | 0.00 | 0.00 | 0.00 | 18 | 1019.7 |
| 20260501191122 | 18 | 155 | 1.6 | 6.4 | 0.00 | 0.00 | 0.00 | 17 | 1019.8 |
| 20260501190122 | 17 | 184 | 4.8 | 11.3 | 0.00 | 0.00 | 0.00 | 21 | 1019.9 |
| 20260501185122 | 17 | 145 | 3.2 | 8.0 | 0.00 | 0.00 | 0.00 | 18 | 1019.9 |
| 20260501184122 | 17 | 201 | 3.2 | 9.7 | 0.00 | 0.00 | 0.00 | 22 | 1020.2 |
| 20260501183143 | 17 | 201 | 3.2 | 8.0 | 0.00 | 0.00 | 0.00 | 26 | 1020.3 |
| 20260501182122 | 16 | 185 | 6.4 | 12.9 | 0.00 | 0.00 | 0.00 | 22 | 1020.3 |
| 20260501181122 | 16 | 178 | 4.8 | 11.3 | 0.00 | 0.00 | 0.00 | 22 | 1020.4 |
| 20260501180122 | 16 | 186 | 6.4 | 12.9 | 0.00 | 0.00 | 0.00 | 23 | 1020.4 |
| 20260501175122 | 16 | 158 | 3.2 | 12.9 | 0.00 | 0.00 | 0.00 | 25 | 1020.5 |
| 20260501174143 | 16 | 152 | 8.0 | 14.5 | 0.00 | 0.00 | 0.00 | 25 | 1020.6 |
| 20260501173122 | 15 | 139 | 4.8 | 12.9 | 0.00 | 0.00 | 0.00 | 26 | 1020.6 |
| 20260501172122 | 15 | 127 | 4.8 | 14.5 | 0.00 | 0.00 | 0.00 | 30 | 1020.8 |
| 20260501171122 | 15 | 160 | 4.8 | 12.9 | 0.00 | 0.00 | 0.00 | 27 | 1020.9 |
| 20260501170122 | 14 | 116 | 4.8 | 11.3 | 0.00 | 0.00 | 0.00 | 30 | 1021.0 |
| 20260501165122 | 14 | 140 | 3.2 | 9.7 | 0.00 | 0.00 | 0.00 | 30 | 1021.1 |
| 20260501164122 | 13 | 133 | 3.2 | 6.4 | 0.00 | 0.00 | 0.00 | 35 | 1021.1 |
| 20260501163122 | 13 | 125 | 3.2 | 9.7 | 0.00 | 0.00 | 0.00 | 34 | 1021.3 |